sat.trackr.live / text

‹ back to catalog

STARLINK-34533

NORAD 64715 · 2025-142V

PAYLOAD ACTIVE UNKNOWN

§ Identity

Operator
Country
US
Launch date
2025-06-28
Launch site
AFWTR
Launch vehicle
Mass (kg)
RCS (m²)

Purposes: comms

External: N2YO · Heavens-Above · Gunter

§ Orbital elements

Epoch: 2026-05-25T05:06:23.206176Z

Period
96.11 min
Inclination
69.9998°
Eccentricity
0.0004114
Mean motion
14.98338014 rev/d
Perigee alt
569.2 km
Apogee alt
574.9 km
Semi-major
6,950.2 km
B*
3.1328e-4
RAAN
121.4972°
Arg perigee
267.4272°
Mean anomaly
92.6416°
Rev number
5,092

§ Raw data

STARLINK-345331 64715U 25142V   26145.21276859  .00003648  00000+0  31328-3 0  99952 64715  69.9998 121.4972 0004114 267.4272  92.6416 14.98338014 50926

JSON: /api/v1/satellites/64715 · /tle

For live sub-satellite position, see the globe view (requires WebGL).

§ Visibility from observer

Set your observer location to see the next 7 days of passes ≥ 10°. The values pass through the URL so the page stays shareable.

No JS? Fill the form by hand. The geolocation button needs JavaScript.